Flag for U.S.A. Weather past 2 weeks in Dover, Delaware, U.S.A.

Now
78 °F

Clear.


Feels Like: 81 °F
Forecast: 76 / 90 °F
Wind: 14 mph from Southwest

Location: Dover Air Force Base

Current Time: Aug 4, 2015 at 3:43:46 AM

Latest Report: Aug 4, 2015 at 2:58 AM


Visibility: 10 mi

Pressure: 29.83 "Hg

Humidity: 100%

Dew point: 78 °F

Location of DoverLocation

Historic Weather in Dover — Graph

°F

Dover temperature yesterday

Maximum temperature yesterday: 91 °F (at 3:58 PM)
Minimum temperature yesterday: 67 °F (at 4:58 AM)
Average temperature yesterday: 81 °F

Past Weeks' High & Low Weather Summary

 TemperatureHumidityPressure
High91 °F (Aug 3, 3:58 PM)100% (Jul 20, 1:58 AM)30.03 "Hg (Jul 20, 1:58 AM)
Low64 °F (Jul 25, 3:58 AM)35% (Jul 24, 2:58 PM)29.62 "Hg (Jul 21, 2:58 PM)
Average78 °F75%29.90 "Hg
* Reported Jul 20 1:58 AM — Aug 4 1:58 AM, Dover, Weather by CustomWeather, © 2015

Note: Actual official high and low records may vary slightly from our data, if they occured in-between our weather recording intervals... More about our weather records

Advertising

Dover weather history for previous 24 hours

 ConditionsComfort  
Time TempWeatherWind HumidityBarometerVisibility
1:58 AM
Tue, Aug 4
78 °FClear.12 mph98%29.83 "Hg10 mi
12:58 AM77 °FClear.10 mph91%29.83 "Hg10 mi
11:58 PM
Mon, Aug 3
77 °FClear.7 mph90%29.83 "Hg10 mi
10:58 PM79 °FClear.7 mph86%29.84 "Hg10 mi
9:58 PM81 °FClear.8 mph80%29.84 "Hg10 mi
8:58 PM82 °FSunny.8 mph78%29.83 "Hg10 mi
7:58 PM83 °FSunny.7 mph69%29.82 "Hg10 mi
6:58 PM87 °FSunny.13 mph60%29.82 "Hg10 mi
5:58 PM89 °FSunny.16 mph55%29.81 "Hg10 mi
4:58 PM90 °FSunny.12 mph46%29.82 "Hg10 mi
3:58 PM91 °FSunny.14 mph45%29.82 "Hg10 mi
2:58 PM90 °FSunny.8 mph43%29.83 "Hg10 mi
1:58 PM89 °FSunny.10 mph46%29.84 "Hg10 mi
12:58 PM88 °FSunny.12 mph48%29.85 "Hg10 mi
11:58 AM87 °FSunny.14 mph52%29.87 "Hg10 mi
10:58 AM85 °FSunny.13 mph56%29.89 "Hg9 mi
9:58 AM82 °FSunny.14 mph66%29.89 "Hg9 mi
8:58 AM78 °FSunny.10 mph77%29.88 "Hg10 mi
7:58 AM73 °FSunny.8 mph89%29.88 "Hg10 mi
4:58 AM67 °FClear.5 mph100%29.86 "Hg10 mi
3:58 AM69 °FClear.5 mph98%29.87 "Hg10 mi
Weather by CustomWeather, © 2015

See weather overviewHow to use our weather pages